Grand Canyon, AZ

1:12 AM MST on April 25, 2018 (GMT -0700)
Grand Canyon National Park

Weather History for KGCN - February, 2012

Change the Weather History Date:

Wednesday, February 1, 2012

  Actual Average Record
Temperature  
Mean Temperature 32 °F -  
Max Temperature 48 °F 42 °F 64 °F (2018)
Min Temperature 15 °F 14 °F -20 °F (1985)
Degree Days  
Heating Degree Days 34    
Moisture  
Dew Point 18 °F    
Average Humidity 64    
Maximum Humidity 88    
Minimum Humidity 33    
Precipitation  
Precipitation 0.00 in - - ()
Sea Level Pressure  
Sea Level Pressure 30.17 in    
Wind  
Wind Speed 2 mph (SSW)    
Max Wind Speed 14 mph    
Max Gust Speed 22 mph    
Visibility 10 miles    
Events      
Averages and records for this station are not official NWS values.
T = Trace of Precipitation, MM = Missing Value Source: NWS Daily Summary

Daily Weather History Graph

Daily Weather History Graph

Search for Another Location

Airport or City:

Astronomy

Feb. 01, 2012 Rise Set
Actual Time 7:29 AM MST 5:55 PM MST
Civil Twilight 7:02 AM MST 6:22 PM MST
Nautical Twilight 6:31 AM MST 6:52 PM MST
Astronomical Twilight 6:01 AM MST 7:23 PM MST
Moon 12:28 PM MST (2/1) 2:16 AM MST (2/1)
Length of Visible Light 11h 19m
Length of Day
10h 25m
Waxing Gibbous, 65% of the Moon is Illuminated
Feb 1
Waxing Gibbous
Feb 7
Full
Feb 14
Last Quarter
Feb 21
New
Feb 29
First Quarter

Hourly Weather History & Observations

Time (MST) Temp. Windchill Dew Point Humidity Pressure Visibility Wind Dir Wind Speed Gust Speed Precip Events Conditions
12:54 AM 19.0 °F - 16.0 °F 88% 30.25 in 10.0 mi Calm Calm - N/A   Clear
1:54 AM 19.0 °F - 15.1 °F 85% 30.25 in 10.0 mi Calm Calm - N/A   Clear
2:54 AM 18.0 °F - 15.1 °F 88% 30.25 in 10.0 mi Calm Calm - N/A   Clear
3:54 AM 17.1 °F - 12.9 °F 84% 30.24 in 10.0 mi Calm Calm - N/A   Clear
4:54 AM 17.1 °F - 12.9 °F 84% 30.25 in 10.0 mi Calm Calm - N/A   Clear
5:54 AM 16.0 °F - 12.9 °F 88% 30.27 in 10.0 mi Calm Calm - N/A   Clear
6:54 AM 16.0 °F - 12.0 °F 84% 30.33 in 10.0 mi Calm Calm - N/A   Clear
7:54 AM 16.0 °F - 12.0 °F 84% 30.35 in 10.0 mi Calm Calm - N/A   Clear
8:54 AM 26.1 °F - 19.9 °F 78% 30.31 in 10.0 mi Calm Calm - N/A   Clear
9:54 AM 37.4 °F - 28.4 °F 70% 30.26 in 10.0 mi Calm Calm - N/A   Clear
10:54 AM 43.0 °F 39.5 °F 19.9 °F 40% 30.23 in 10.0 mi South 5.8 mph - N/A   Clear
11:54 AM 45.0 °F 42.6 °F 19.0 °F 36% 30.19 in 10.0 mi SSE 4.6 mph - N/A   Clear
12:54 PM 48.2 °F - 21.2 °F 34% 30.16 in 10.0 mi SSW 8.1 mph - N/A   Scattered Clouds
1:54 PM 46.0 °F 41.4 °F 19.9 °F 35% 30.12 in 10.0 mi SSW 9.2 mph - N/A   Clear
2:54 PM 46.4 °F 41.9 °F 19.4 °F 34% 30.12 in 10.0 mi SW 9.2 mph - N/A   Overcast
3:54 PM 46.0 °F 39.9 °F 19.0 °F 34% 30.09 in 10.0 mi SW 13.8 mph 21.9 mph N/A   Scattered Clouds
4:54 PM 45.0 °F 38.5 °F 18.0 °F 34% 30.08 in 10.0 mi SSW 13.8 mph 20.7 mph N/A   Clear
5:54 PM 42.1 °F 38.4 °F 19.0 °F 40% 30.08 in 10.0 mi SSW 5.8 mph - N/A   Scattered Clouds
6:54 PM 37.0 °F 31.6 °F 19.9 °F 50% 30.10 in 10.0 mi SSW 6.9 mph - N/A   Clear
7:54 PM 30.9 °F - 19.0 °F 61% 30.13 in 10.0 mi Calm Calm - N/A   Clear
8:54 PM 27.0 °F 23.0 °F 19.0 °F 72% 30.11 in 10.0 mi NE 3.5 mph - N/A   Clear
9:54 PM 25.0 °F 19.3 °F 19.9 °F 81% 30.06 in 10.0 mi NE 4.6 mph - N/A   Clear
10:54 PM 23.0 °F - 19.0 °F 85% 30.03 in 10.0 mi Calm Calm - N/A   Clear
11:54 PM 24.1 °F - 19.0 °F 81% 30.00 in 10.0 mi Calm Calm - N/A   Mostly Cloudy